Temp_Advection
nan nan nan nan nan nan nan nan nan nan nan nan nan nan nan nan nan nan nan nan nan nan nan nan nan nan nan nan nan nan nan nan nan nan nan nan nan nan nan nan nan nan nan nan nan nan nan nan nan nan nan nan nan nan
nan 0 1 0 0 0 0 0 -0 -0 -1 -1 -1 -1 -1 -1 -1 -0 -0 -0 -0 -0 -0 -0 -0 -0 -0 0 -0 -0 -0 -0 0 -0 -0 -0 -0 -0 -0 -1 -1 -0 -0 0 -0 -1 -2 -0 -0 1 -0 -1 -1 nan
nan 0 1 0 0 0 0 -0 -0 -0 -0 -1 -2 -1 -1 -1 -0 0 -0 0 -0 0 0 -1 -1 -0 0 -0 0 -0 -1 -0 -0 -0 -1 0 -1 -0 0 -1 -2 -1 1 1 -0 -2 -1 1 -1 -2 -2 -1 -1 nan
nan 1 0 0 1 0 -0 -0 -0 -0 -1 -2 -2 -1 -1 -1 0 0 0 0 -0 0 -0 -1 0 -0 -1 -0 0 0 -0 -1 -1 -1 -0 0 -0 -1 -1 -1 -0 -0 -0 -1 -1 -1 0 -0 -1 -1 -1 -0 0 nan
nan 0 0 0 0 -0 -0 -0 -0 -1 -2 -2 -1 -1 -0 0 0 0 -0 0 -0 -0 -0 -0 -0 -0 -0 0 0 -0 -0 -0 -1 -1 -0 -0 -1 -1 -1 -0 -0 -1 -0 -0 -1 -1 -1 -0 -0 -1 -1 -1 -1 nan
nan 0 1 0 -0 -0 0 -0 -2 -1 -1 -1 -0 -0 0 -0 0 0 0 -1 -0 0 -0 -0 -0 -0 -0 0 0 -0 -0 -0 -1 -0 1 0 -2 -0 0 -1 -1 1 -1 -2 -1 0 -1 -1 -1 -1 -0 0 -1 nan
nan 0 0 -0 0 0 -0 -2 -1 -0 -1 -1 -0 0 0 0 1 0 0 -0 0 0 0 -0 -0 -0 -0 -0 -0 -1 -0 -0 -0 1 0 -0 -1 0 1 -1 -3 -1 -2 -2 -2 -2 -0 0 -0 0 -1 -1 0 nan
nan 0 0 0 -0 -1 -1 -0 -1 -1 -1 -0 0 0 1 1 0 -0 0 0 0 0 -0 -0 -0 -1 -0 -1 -1 -0 0 1 0 0 0 0 0 1 -1 -3 -1 -2 -2 -1 -0 -0 0 -1 -2 -1 -1 -0 1 nan
nan 0 -0 -0 -1 -1 -0 -1 -1 -0 -0 1 0 0 0 0 -0 -0 0 0 0 -0 -0 -0 -0 -0 -0 -0 0 0 1 0 1 0 -1 -1 -1 -1 -3 -2 -1 0 0 1 -0 -1 -2 -2 -1 -1 -0 1 2 nan
nan -0 -0 -1 -0 -0 -1 0 1 0 0 0 0 0 -0 -0 0 0 -0 0 -0 -0 -1 -1 -1 -0 -0 -0 0 0 -0 -0 -0 -1 -0 -0 -1 -2 -1 -1 -1 -0 -1 -1 -1 -0 -0 -0 0 -0 -1 0 1 nan
nan -0 -0 -0 -0 -0 0 0 0 0 0 0 -0 0 0 -0 0 -0 -0 -0 -0 -0 -1 -1 -1 -0 -0 -0 0 0 -0 -0 -0 -1 -0 0 -1 -1 0 1 1 1 0 -3 -3 -1 -2 -0 1 -0 -1 0 -1 nan
nan -0 -0 -0 -0 0 0 0 0 -0 -0 -0 -0 -0 0 0 -0 -0 -0 -0 -0 -1 -1 -0 0 1 0 0 0 0 -0 -0 -1 -1 1 -1 -1 -1 2 1 -1 -3 -4 -4 0 2 0 -0 0 -1 -0 1 1 nan
nan -0 -0 -0 0 0 0 0 0 0 0 0 -0 -0 -0 -0 -0 -0 -1 -1 -1 -1 -0 0 0 -0 0 -0 -0 -0 -0 -1 -0 0 -0 -1 0 -1 -2 -1 -0 -3 -6 -6 -1 1 1 0 0 1 1 1 2 nan
nan -0 -0 -0 0 0 0 0 0 0 0 0 0 -0 -0 -0 -1 -1 -1 -0 -0 -0 0 0 0 -0 -0 -0 -0 -0 -1 0 0 -1 1 -0 -3 -0 -1 -1 -1 -5 -4 -1 1 1 1 1 2 2 1 1 1 nan
nan -0 -0 -0 -0 0 0 0 0 0 0 0 0 -0 -1 -1 -0 -0 -0 -1 -0 0 0 0 0 0 0 -0 -0 -0 -0 -0 0 -0 -0 0 -1 -1 -1 -1 -2 -2 -1 0 1 1 2 2 2 2 3 0 -1 nan
nan -0 -0 -0 -0 -0 -0 0 0 0 -0 -0 -0 -0 -0 -0 0 -0 -0 -0 -0 0 0 0 0 0 -0 -0 0 -0 -0 -0 -0 -0 1 0 -1 -1 -1 -2 -1 -0 0 1 1 1 2 2 1 -1 2 2 1 nan
nan -0 -0 -0 0 0 0 0 0 -0 -0 -0 -1 -1 -0 -0 -0 -0 -0 -0 -0 0 0 0 -0 -1 -0 -0 -1 -0 0 -0 1 1 1 1 -0 -1 -1 -1 0 0 0 1 0 0 1 1 1 -1 -0 1 1 nan
nan -0 -0 0 0 -0 -0 0 -0 -0 -1 -1 -0 -0 -0 -0 -0 -0 -0 -0 0 0 0 -0 -0 -0 -0 -1 -1 -0 1 1 1 1 0 0 0 -1 -0 1 1 0 -0 0 -0 -0 0 1 1 1 -0 0 0 nan
nan -0 0 0 0 -0 -0 -0 -0 -0 -1 -0 -0 -0 -0 -0 -0 -0 -0 -0 0 0 -0 -0 -0 -0 -0 -0 0 0 1 2 2 1 0 0 0 -0 -0 1 -0 0 0 -0 -0 0 0 1 1 1 1 0 -0 nan
nan -0 0 0 0 -0 -0 -0 -0 -1 -0 -0 -0 -0 -0 -0 -0 -0 -0 -0 0 1 0 -0 -1 -1 -0 -0 0 1 1 2 2 0 -1 -0 0 0 -0 1 1 0 0 -0 -1 -1 -1 1 1 1 1 1 -1 nan
nan -0 -0 0 -0 -0 -0 -0 -0 -0 -0 -0 -0 -0 -0 -0 0 0 -0 0 0 -0 -0 -1 -0 -0 -0 0 0 0 1 2 1 -0 -0 -0 0 0 0 1 1 0 1 -0 0 0 -0 -1 -0 0 0 -0 -0 nan
nan -0 -0 -0 -0 -0 -0 -1 -0 -0 -0 -1 -0 -0 -0 0 -0 -0 0 -0 -0 -1 -0 -1 -1 -0 -0 0 1 1 1 1 -0 0 0 0 0 0 0 0 1 0 0 0 -0 -1 -1 0 0 -0 -1 -1 -0 nan
nan -0 -0 -0 -0 -0 -0 -0 -0 -0 -0 -0 -0 -0 -0 -0 -0 0 0 -1 -1 -1 -0 -0 0 0 0 0 1 1 -0 0 0 -0 -0 0 0 0 0 0 -0 -0 -1 -0 1 0 -1 -1 -0 -0 0 -0 -0 nan
nan -0 -0 -0 -1 -0 -0 -0 -1 -0 -0 -0 0 -0 -0 0 0 -0 -0 -1 -0 -0 -0 0 1 0 0 0 0 -0 0 0 0 -0 0 0 0 0 0 0 -0 0 0 -1 -1 -0 -0 -0 0 0 0 -0 -0 nan
nan -0 -0 -0 -1 -0 -0 -0 -0 0 -0 -0 0 -0 -0 0 0 -0 -0 -0 0 1 1 0 -0 -0 -0 -1 -1 -0 0 -0 0 0 0 -0 -0 0 1 0 0 1 1 -0 -1 -0 -0 0 0 0 0 0 0 nan
nan -0 -0 -0 -0 -0 -0 -0 -0 -0 -0 0 -0 -0 0 0 0 -0 -0 0 0 0 0 0 -0 -1 -1 -0 -0 0 0 0 0 0 1 0 -0 1 0 -1 -1 0 1 1 0 0 -0 0 0 0 0 0 0 nan
nan -0 -0 -0 -0 -0 0 -0 0 0 -0 -0 -0 0 0 0 -1 0 0 0 -0 -0 -0 0 0 -0 -0 -0 -0 -0 -0 -0 -0 -0 1 1 -0 0 1 0 -1 -0 0 1 0 0 0 -0 -0 -0 -0 -0 0 nan
nan -0 -0 0 0 -0 -0 -0 -0 -0 -0 -0 0 0 -0 -0 0 -0 0 -0 -0 -0 -0 -0 -0 -0 -0 -0 0 0 -0 -0 -0 0 0 0 0 0 0 0 -0 -0 0 0 0 0 0 0 0 0 0 0 0 nan
nan -0 0 0 -0 -0 -0 -0 -0 -0 0 0 0 -0 0 0 0 -0 -0 0 -0 -0 -0 -0 -0 -0 0 0 0 0 -0 0 1 1 -1 -1 -0 0 1 1 0 0 0 0 0 0 0 0 0 0 0 0 0 nan
nan 0 0 -0 -0 -0 -0 0 0 0 -0 -0 0 0 0 0 -0 -0 -0 0 0 0 -0 -0 0 0 0 0 0 0 0 0 0 1 -1 -1 -0 -0 0 0 0 0 0 0 0 0 -0 -0 -0 -0 -0 -0 -0 nan
nan 0 -0 0 0 0 1 0 0 -0 -0 0 0 -0 0 0 -0 -0 -0 -0 -0 -0 -0 0 0 1 1 0 1 0 0 0 0 0 0 -0 -0 -0 -0 0 0 0 0 0 0 0 -0 -0 -0 -0 0 0 0 nan
nan -0 0 0 0 0 0 -0 -0 -0 0 0 0 0 0 -0 0 -0 -0 0 0 -0 -0 1 1 1 1 0 0 0 1 0 0 0 0 0 0 0 0 -0 -0 0 0 0 -0 -0 -0 -0 -0 -0 0 0 0 nan
nan nan nan nan nan nan nan nan nan nan nan nan nan nan nan nan nan nan nan nan nan nan nan nan nan nan nan nan nan nan nan nan nan nan nan nan nan nan nan nan nan nan nan nan nan nan nan nan nan nan nan nan nan nan
Wind_Speed
38 36 33 32 32 34 34 33 35 33 33 34 36 39 34 35 37 37 39 36 35 14 20 17 21 18 12 11 8 5 5 8 9 7 7 10 13 15 17 23 25 21 16 14 19 21 26 23 22 23 23 31 32 30
38 35 33 34 34 34 36 36 36 35 37 34 40 37 34 35 38 37 38 34 31 25 13 16 29 26 21 22 24 21 14 13 3 4 4 5 10 13 18 17 21 20 20 17 23 18 22 25 28 28 44 35 39 40
37 36 37 36 34 35 35 34 36 38 37 36 37 32 31 35 37 38 36 33 28 24 16 25 27 21 21 26 26 25 25 24 25 26 22 13 18 14 16 17 23 23 33 16 18 27 34 40 47 52 49 50 48 44
37 35 34 32 32 32 33 37 39 37 34 40 32 29 31 33 34 36 37 33 26 5 5 14 13 20 27 28 28 27 30 29 30 30 27 12 15 16 17 22 19 22 25 28 29 36 34 49 49 49 49 48 53 53
31 31 31 31 29 31 36 37 34 37 39 30 28 29 30 31 31 35 33 26 29 22 2 8 13 19 22 24 26 30 33 34 34 28 16 15 28 20 23 21 20 30 28 19 25 35 33 50 46 50 50 51 53 51
28 28 28 26 30 34 33 33 38 39 31 26 29 30 29 31 33 29 17 31 26 15 3 4 8 15 18 23 29 32 35 38 37 30 24 28 42 28 14 22 38 49 51 53 42 55 55 61 58 56 56 59 55 50
22 22 25 27 29 29 33 39 39 32 29 25 26 33 36 37 31 20 7 6 24 16 4 4 5 9 15 22 27 32 37 37 37 36 31 32 32 31 18 26 40 52 55 54 55 54 53 57 51 55 54 51 50 49
22 22 22 24 25 31 32 42 31 22 33 26 24 22 35 31 26 21 7 12 23 15 6 3 5 13 13 21 21 22 27 31 30 30 30 21 29 29 19 42 53 57 55 56 62 65 66 66 61 58 55 51 52 49
19 19 20 22 26 30 34 18 25 29 28 35 32 32 27 26 12 14 14 11 14 9 5 6 6 8 9 19 20 21 25 13 25 10 11 15 15 18 25 36 48 55 54 62 62 57 57 56 58 55 50 47 44 46
15 15 15 19 28 26 12 20 25 26 33 31 32 9 7 12 13 19 11 8 7 8 9 9 17 14 20 22 19 16 14 9 10 14 25 18 23 55 60 61 62 61 57 56 47 44 46 48 47 49 47 43 39 44
11 10 13 19 19 8 14 26 29 34 33 23 7 5 14 19 13 8 6 7 7 5 9 15 26 17 26 15 13 11 5 5 9 13 15 13 21 25 36 48 57 58 61 63 57 57 51 44 43 40 38 36 36 35
9 11 12 11 10 7 22 28 30 25 18 11 11 16 16 7 5 4 5 4 6 6 11 14 17 17 13 10 8 6 5 5 9 11 9 11 17 35 32 26 36 43 40 35 33 42 46 43 41 35 28 24 23 22
7 9 6 5 5 8 22 29 21 17 20 17 6 5 5 4 5 6 8 5 5 8 8 6 6 3 5 8 6 4 6 8 10 6 7 10 19 36 40 42 44 45 42 38 32 30 34 37 32 26 24 19 21 27
7 3 4 2 7 9 13 23 19 19 7 4 5 6 5 6 6 7 9 9 14 17 17 11 13 6 9 5 5 5 7 6 6 9 17 6 29 42 42 42 39 48 22 13 13 23 24 23 24 27 21 30 44 48
4 4 4 3 8 11 11 12 14 12 2 3 4 4 7 10 9 5 8 15 13 12 10 11 10 9 5 5 5 5 5 7 6 5 9 27 43 42 44 42 44 21 8 5 10 17 22 27 28 33 37 35 35 44
5 6 5 5 9 12 13 14 15 10 2 1 3 4 8 7 10 13 14 16 13 9 9 9 3 4 6 4 5 6 8 7 10 13 31 45 48 43 42 41 29 7 8 16 21 23 28 33 37 39 38 47 52 50
7 4 3 7 11 14 13 13 10 7 4 5 8 15 15 11 9 7 6 9 12 8 4 2 3 6 4 5 6 5 9 13 25 36 46 46 45 41 40 31 8 11 17 23 30 31 34 41 49 56 48 45 41 40
7 4 7 11 13 14 13 11 3 4 7 12 8 13 16 17 17 18 17 17 14 15 17 7 6 6 5 13 12 10 21 31 34 42 43 45 42 36 28 12 18 21 27 31 36 40 44 47 48 50 48 44 38 33
7 4 10 12 17 15 7 10 9 5 11 10 15 16 14 15 18 20 20 18 13 12 7 5 6 7 9 9 12 23 29 31 40 47 51 36 28 24 20 14 25 31 34 36 38 42 46 48 50 44 37 36 39 40
10 6 9 7 7 4 6 7 9 7 6 8 12 15 17 18 19 20 21 20 18 15 7 4 10 20 20 25 29 33 37 40 38 43 43 27 22 16 10 10 26 30 31 31 36 41 39 34 34 32 35 38 38 34
11 9 8 7 5 6 5 5 8 6 5 8 11 17 17 18 20 22 22 20 20 8 9 22 27 29 27 31 33 35 37 33 36 32 33 27 22 10 7 15 20 28 32 29 33 32 31 28 29 32 34 34 32 30
8 8 6 8 5 4 6 8 6 4 6 10 11 13 12 11 16 18 13 9 11 24 26 26 27 27 30 31 31 33 32 39 31 21 18 11 6 3 9 17 24 24 28 27 30 31 29 29 31 31 31 30 28 26
10 8 4 6 6 5 6 7 6 6 4 3 5 7 10 15 20 13 5 13 21 24 24 25 27 27 29 30 27 30 27 19 15 12 7 3 5 7 12 18 21 26 29 25 28 32 30 29 29 29 27 25 24 23
11 4 7 6 11 4 5 7 7 7 8 10 9 10 8 4 5 6 7 18 19 19 19 20 19 22 23 21 26 22 14 12 6 3 2 7 12 18 19 20 21 23 31 32 31 32 31 29 26 24 23 22 20 19
6 8 6 6 9 7 6 4 9 7 6 9 12 5 3 3 3 4 8 11 16 13 8 10 15 18 20 26 15 8 7 1 2 6 8 9 14 19 24 26 25 25 27 28 29 28 26 23 21 20 19 17 14 12
7 9 9 5 7 7 7 4 6 8 7 3 4 3 3 3 3 5 4 4 1 7 13 17 18 20 17 9 7 2 2 5 9 15 15 12 12 24 33 30 28 23 24 26 26 25 23 21 20 17 14 11 8 7
6 7 9 10 5 7 3 6 10 4 3 5 4 3 4 4 6 3 2 5 9 17 21 19 16 14 9 7 5 6 11 13 14 19 22 24 24 23 27 29 27 25 23 21 19 18 17 15 12 9 6 5 5 6
10 7 7 10 7 10 4 3 4 4 5 7 3 4 3 4 2 1 4 14 18 21 18 13 7 6 7 4 7 12 14 21 25 26 26 26 25 24 23 23 23 21 19 16 13 11 10 8 6 6 6 6 7 7
6 8 10 5 5 7 6 5 4 6 5 5 2 3 3 2 4 10 15 15 14 10 8 6 4 5 9 13 18 27 27 23 20 26 26 25 23 21 20 19 17 15 12 11 9 8 7 6 6 6 6 6 7 9
7 12 8 8 5 6 5 5 5 3 4 4 3 2 2 3 7 10 10 12 8 5 4 5 10 13 18 21 21 18 17 20 18 22 25 23 21 20 17 15 13 11 9 7 6 7 7 6 7 8 9 10 10 10
8 15 6 8 4 5 7 8 7 4 3 4 6 4 3 4 6 8 8 7 2 5 9 13 18 20 21 20 20 19 17 15 12 11 14 17 18 17 14 13 11 10 9 9 8 8 7 9 10 11 12 11 10 8
12 9 5 5 4 4 5 5 3 3 3 4 4 2 2 2 1 3 2 4 9 13 17 20 23 21 15 14 13 13 16 18 17 17 17 16 16 15 14 13 12 10 9 8 9 10 10 10 11 10 11 11 8 7
8 7 5 3 4 5 7 7 5 2 4 4 4 5 3 1 2 2 1 4 9 10 12 14 16 15 14 15 17 18 19 19 19 17 15 15 14 13 12 10 9 9 9 9 9 9 9 7 7 8 8 8 7 5
Wind_Direction
233 237 242 249 254 257 259 265 270 275 274 273 266 273 256 245 233 223 228 231 223 240 241 239 238 238 243 236 245 256 268 231 239 235 243 249 255 257 258 251 255 255 263 225 230 233 246 254 265 251 272 279 290 294
227 235 242 249 254 258 260 267 272 276 277 268 271 265 253 239 223 217 230 228 224 229 245 237 242 244 248 253 258 260 252 271 282 278 264 279 270 284 278 271 264 257 251 258 249 253 250 251 282 284 301 298 290 289
225 232 240 246 251 258 262 268 272 271 277 271 270 251 242 223 214 213 220 225 221 233 248 245 239 238 239 240 242 258 258 257 261 263 277 279 269 269 267 263 273 262 257 246 268 261 263 272 271 276 281 285 281 287
225 235 245 252 253 258 263 269 275 276 271 274 249 236 226 214 211 211 215 219 215 213 228 250 247 238 242 242 244 245 253 258 260 262 261 254 255 255 263 270 268 264 271 267 272 266 280 274 272 273 274 277 279 276
226 235 247 251 253 259 266 270 272 275 277 249 229 224 215 209 208 210 215 217 226 210 258 255 250 244 244 242 241 242 243 246 249 250 243 247 253 257 257 266 257 253 262 257 259 272 273 270 273 274 274 273 280 288
233 239 243 250 256 262 267 271 279 271 261 228 221 215 211 203 198 196 209 215 209 216 258 260 265 254 245 241 239 238 238 238 235 245 245 252 253 257 259 255 255 257 258 256 264 263 262 269 271 270 274 277 277 279
224 235 246 254 261 266 270 278 269 266 226 215 208 202 196 197 196 169 176 174 196 188 208 280 257 253 249 244 244 245 245 243 242 246 246 249 254 250 251 254 254 257 260 263 262 264 262 262 261 265 261 269 268 271
232 241 249 259 265 275 279 276 270 235 223 198 195 197 186 170 173 187 175 165 161 170 189 241 253 264 246 243 251 254 243 241 239 242 248 247 249 242 248 253 263 264 263 260 256 253 251 259 264 267 267 268 271 273
232 241 252 264 277 274 284 266 209 209 196 175 175 162 149 171 171 177 174 149 167 195 210 209 237 272 242 249 262 272 262 261 260 239 231 236 236 235 253 259 258 255 250 252 257 261 262 259 260 261 261 259 262 266
232 247 261 275 267 292 257 169 169 174 159 147 140 141 141 169 153 160 164 194 215 215 225 247 258 260 261 268 273 277 276 260 255 251 253 234 247 249 251 255 261 266 266 266 266 266 253 252 255 256 254 255 253 260
242 258 271 271 285 290 158 154 150 146 141 142 136 121 137 152 142 179 159 188 186 230 232 243 241 258 256 254 263 258 254 256 253 247 247 248 254 254 263 262 263 265 263 260 256 251 250 252 253 251 253 253 249 252
246 257 268 272 332 151 155 151 147 150 160 143 131 127 131 159 149 170 184 190 208 228 231 230 246 257 276 261 246 226 241 251 260 257 247 252 263 269 283 307 303 310 304 272 258 245 240 240 242 245 248 248 240 217
255 266 268 316 47 131 155 151 151 149 139 129 112 130 143 160 189 200 183 200 216 211 242 251 256 155 254 237 239 252 245 242 284 235 251 270 316 334 320 318 312 308 297 272 261 237 230 235 248 244 219 215 202 184
220 268 175 313 114 125 148 159 151 138 133 122 156 150 212 175 222 211 229 228 230 245 268 274 267 254 257 235 238 248 251 264 240 257 271 336 320 312 315 311 308 309 288 272 230 213 220 230 214 194 192 175 157 151
214 247 175 178 156 139 153 159 154 164 146 157 175 202 215 228 236 267 271 274 267 272 274 293 274 247 261 245 234 258 260 249 258 2 304 318 319 316 315 315 314 291 251 229 191 189 181 179 173 160 162 160 160 154
201 231 218 188 176 159 165 164 179 191 224 235 237 248 244 238 241 252 256 257 259 285 300 262 253 265 240 246 245 236 292 286 325 318 318 320 319 312 315 317 314 201 177 141 141 148 152 156 152 144 146 144 138 132
191 213 184 179 180 168 176 175 180 187 228 208 227 231 253 269 266 274 264 280 278 249 236 273 254 242 281 252 263 265 286 304 312 312 313 311 312 312 318 322 151 146 140 134 127 126 129 137 143 139 134 127 127 131
214 212 189 171 168 170 188 193 223 240 219 224 233 238 238 246 259 265 274 270 261 261 260 252 263 251 254 263 269 294 306 307 304 304 303 311 312 320 336 31 116 130 126 125 128 124 123 123 124 125 132 139 140 135
230 217 169 168 183 185 189 201 200 255 229 238 237 242 251 255 255 262 265 263 254 261 268 247 250 245 240 261 276 285 298 306 307 306 306 314 326 332 353 77 109 114 106 108 109 111 120 127 132 138 141 143 137 139
213 186 163 193 216 239 203 204 193 236 244 233 238 244 244 249 255 258 257 254 254 250 227 231 247 256 270 279 283 289 294 298 301 303 303 323 338 347 8 92 123 122 122 122 122 127 124 123 133 136 138 139 138 141
209 192 198 216 253 238 281 196 203 226 231 232 238 239 244 256 256 254 250 250 248 227 243 246 262 273 277 278 282 287 290 291 293 292 301 314 327 351 78 110 136 124 123 121 113 116 118 118 127 136 140 141 143 142
196 191 191 223 235 255 247 230 241 238 231 247 253 254 248 247 250 246 236 230 245 238 244 260 268 277 281 284 289 291 290 292 299 301 313 321 289 318 101 111 121 111 113 115 124 125 123 135 140 140 138 136 139 140
203 215 231 221 218 234 256 209 230 232 233 234 258 257 248 248 244 242 236 239 250 258 264 267 273 278 283 289 290 288 302 299 300 306 319 359 93 108 109 108 113 122 122 117 132 138 134 134 136 137 138 139 141 139
209 216 215 218 209 233 193 206 224 247 237 245 257 254 257 233 207 206 247 252 264 271 269 272 282 287 290 290 291 305 301 299 305 311 122 118 112 112 110 119 128 133 139 140 136 131 131 135 139 140 140 141 141 141
196 221 220 220 209 204 213 221 228 238 234 235 238 251 250 248 222 240 261 267 261 268 271 282 295 291 291 299 312 304 304 271 132 115 116 138 133 124 120 126 129 130 137 138 135 137 138 140 142 141 140 138 135 138
228 207 204 229 194 193 204 214 214 219 248 246 242 242 252 255 255 256 263 297 269 293 300 303 301 300 304 304 302 222 117 125 133 112 108 116 137 138 138 133 130 132 142 144 144 143 142 144 141 136 130 128 133 149
234 229 215 228 239 212 242 234 221 199 216 218 241 217 208 231 233 237 254 291 311 309 314 310 301 293 288 300 259 169 145 147 155 135 131 136 133 131 136 135 133 134 142 142 142 140 135 133 131 133 135 138 145 158
230 220 201 204 206 220 237 256 210 223 224 217 228 221 216 219 264 341 288 310 314 311 309 310 297 253 241 219 150 141 137 135 130 123 124 121 122 126 127 128 126 128 130 129 131 133 136 142 148 151 158 158 158 154
228 216 205 197 211 225 218 219 229 231 243 230 236 254 279 331 314 321 318 323 320 313 305 301 232 178 147 147 143 137 133 127 141 130 123 117 119 119 125 128 130 133 137 141 144 145 143 147 154 155 157 151 141 134
217 194 193 188 213 222 223 226 263 279 286 282 270 280 266 300 325 339 344 337 329 300 260 185 156 153 143 143 137 136 137 146 153 143 139 135 134 133 136 137 138 136 135 137 137 132 119 118 122 126 123 120 130 133
191 195 216 198 226 241 233 255 250 256 248 259 273 271 275 296 315 342 346 351 50 137 156 150 138 136 139 136 132 131 125 125 129 131 138 138 137 136 132 127 120 121 121 118 116 114 121 127 123 122 123 126 131 136
184 200 204 211 208 237 204 199 227 221 223 225 234 215 260 255 295 300 354 74 114 120 127 123 123 125 135 139 144 143 135 130 131 132 134 135 135 133 130 127 128 128 129 127 125 125 120 118 118 117 121 123 119 122
199 189 178 163 160 187 202 198 211 242 223 219 199 190 197 245 248 262 111 135 115 104 104 114 126 133 132 131 130 129 131 132 132 133 135 137 137 135 134 132 128 120 113 108 109 111 117 118 115 118 115 109 104 98
Height
1478 1482 1485 1487 1488 1490 1490 1491 1491 1490 1489 1488 1488 1488 1488 1491 1496 1502 1502 1507 1509 1506 1507 1508 1510 1511 1511 1512 1510 1509 1513 1509 1511 1510 1506 1499 1490 1483 1478 1474 1472 1468 1464 1462 1469 1473 1458 1443 1442 1445 1432 1433 1432 1431
1468 1472 1476 1478 1478 1480 1481 1481 1480 1479 1478 1477 1476 1476 1477 1480 1486 1494 1495 1499 1503 1503 1501 1501 1505 1507 1508 1510 1511 1508 1509 1505 1506 1502 1499 1494 1487 1481 1475 1465 1463 1460 1458 1454 1451 1439 1433 1429 1430 1429 1429 1432 1430 1430
1458 1462 1466 1468 1468 1470 1471 1471 1470 1468 1467 1466 1464 1465 1466 1470 1478 1484 1488 1492 1497 1496 1495 1496 1497 1500 1501 1503 1506 1506 1505 1505 1503 1502 1499 1494 1490 1482 1472 1462 1461 1457 1455 1454 1455 1435 1425 1437 1435 1430 1430 1427 1419 1420
1448 1452 1456 1457 1459 1460 1461 1461 1459 1457 1455 1454 1453 1456 1459 1465 1472 1478 1480 1486 1490 1491 1491 1488 1489 1489 1492 1495 1497 1500 1499 1500 1499 1497 1493 1489 1482 1478 1465 1455 1458 1447 1451 1439 1432 1412 1430 1420 1422 1424 1420 1416 1411 1412
1440 1442 1446 1448 1449 1451 1451 1449 1447 1445 1444 1442 1445 1449 1454 1460 1466 1472 1476 1479 1483 1490 1483 1481 1482 1484 1486 1487 1489 1490 1489 1489 1488 1486 1481 1473 1472 1474 1460 1455 1429 1442 1433 1438 1408 1419 1427 1399 1418 1415 1411 1406 1402 1401
1430 1434 1438 1439 1441 1441 1440 1438 1436 1434 1433 1435 1438 1443 1449 1455 1461 1467 1471 1473 1475 1478 1482 1479 1475 1475 1477 1478 1478 1478 1476 1475 1475 1468 1466 1464 1463 1460 1444 1421 1410 1424 1424 1420 1411 1414 1409 1396 1401 1402 1398 1393 1392 1390
1425 1427 1430 1432 1432 1431 1429 1426 1424 1422 1424 1429 1433 1436 1444 1449 1454 1460 1464 1464 1469 1478 1481 1479 1470 1466 1465 1465 1466 1466 1463 1462 1461 1457 1455 1454 1452 1448 1432 1405 1396 1406 1406 1404 1400 1397 1387 1383 1375 1380 1382 1379 1379 1377
1418 1422 1424 1425 1424 1421 1417 1415 1411 1413 1417 1420 1428 1434 1439 1446 1453 1458 1461 1463 1469 1474 1478 1476 1466 1462 1458 1456 1456 1453 1450 1449 1445 1440 1441 1438 1434 1430 1403 1370 1394 1388 1388 1384 1375 1368 1365 1362 1364 1365 1368 1368 1365 1363
1416 1418 1418 1417 1414 1411 1406 1400 1401 1407 1415 1420 1427 1433 1438 1443 1449 1455 1460 1465 1467 1472 1470 1468 1457 1451 1449 1449 1448 1444 1441 1436 1431 1426 1424 1425 1408 1378 1369 1371 1363 1354 1356 1348 1349 1355 1354 1351 1346 1346 1350 1351 1352 1349
1412 1412 1412 1410 1408 1403 1399 1399 1402 1408 1413 1419 1427 1433 1439 1443 1449 1454 1461 1464 1465 1464 1463 1454 1452 1443 1450 1444 1440 1442 1435 1427 1412 1403 1400 1391 1368 1353 1349 1346 1341 1338 1339 1337 1336 1332 1331 1331 1329 1329 1332 1334 1338 1338
1407 1408 1407 1406 1403 1399 1398 1401 1405 1411 1417 1422 1427 1433 1438 1443 1448 1453 1456 1459 1459 1457 1449 1443 1442 1437 1440 1437 1432 1436 1425 1412 1398 1386 1378 1359 1337 1326 1342 1334 1327 1320 1314 1311 1311 1307 1313 1314 1312 1317 1319 1321 1324 1326
1406 1406 1405 1402 1399 1399 1401 1404 1408 1413 1418 1422 1425 1432 1438 1443 1446 1449 1449 1450 1449 1441 1432 1429 1429 1428 1428 1428 1426 1423 1416 1406 1383 1363 1357 1337 1327 1328 1323 1318 1311 1302 1291 1286 1284 1286 1291 1296 1299 1303 1306 1309 1312 1314
1402 1401 1401 1401 1400 1400 1403 1407 1412 1415 1420 1425 1429 1433 1435 1441 1439 1439 1435 1434 1430 1426 1426 1426 1427 1427 1429 1426 1421 1415 1400 1386 1369 1355 1343 1328 1324 1324 1318 1309 1297 1286 1278 1273 1271 1273 1279 1285 1292 1293 1295 1301 1306 1312
1401 1402 1402 1403 1403 1405 1407 1410 1414 1418 1422 1425 1429 1432 1432 1430 1426 1419 1417 1416 1419 1420 1419 1420 1422 1422 1417 1416 1411 1402 1382 1371 1357 1338 1329 1336 1332 1322 1311 1300 1289 1276 1266 1263 1261 1266 1273 1279 1282 1286 1291 1295 1301 1306
1402 1402 1403 1406 1407 1409 1412 1414 1418 1422 1424 1426 1427 1423 1421 1418 1417 1417 1417 1416 1416 1415 1416 1418 1417 1416 1412 1409 1400 1389 1378 1359 1337 1338 1340 1335 1326 1314 1302 1290 1280 1271 1266 1265 1264 1266 1270 1273 1278 1284 1290 1298 1306 1313
1402 1404 1405 1407 1409 1412 1415 1417 1420 1423 1424 1425 1424 1420 1417 1416 1416 1417 1416 1417 1417 1415 1417 1417 1414 1412 1404 1397 1390 1381 1368 1349 1347 1340 1334 1328 1318 1309 1298 1286 1276 1271 1267 1266 1267 1270 1273 1276 1282 1290 1300 1306 1314 1319
1402 1403 1405 1407 1410 1413 1416 1418 1422 1423 1423 1422 1418 1416 1416 1415 1414 1415 1415 1414 1413 1414 1416 1414 1413 1403 1394 1388 1376 1364 1361 1355 1349 1339 1334 1326 1317 1305 1293 1282 1275 1272 1270 1268 1272 1277 1281 1285 1290 1298 1307 1315 1322 1329
1403 1405 1406 1407 1410 1414 1416 1418 1421 1419 1417 1414 1413 1412 1411 1412 1412 1411 1410 1409 1410 1410 1409 1408 1404 1397 1390 1378 1369 1364 1361 1356 1349 1342 1331 1322 1312 1301 1295 1285 1278 1276 1277 1278 1280 1285 1289 1294 1301 1311 1319 1327 1333 1340
1403 1403 1405 1407 1409 1412 1415 1417 1418 1414 1410 1408 1407 1408 1407 1407 1406 1406 1406 1404 1405 1406 1406 1404 1399 1386 1378 1373 1369 1363 1358 1354 1343 1329 1321 1320 1311 1302 1298 1291 1288 1287 1288 1290 1293 1299 1306 1313 1318 1323 1328 1334 1339 1346
1402 1404 1406 1408 1410 1412 1410 1411 1411 1408 1402 1402 1403 1402 1401 1401 1401 1399 1399 1399 1399 1400 1400 1396 1383 1377 1377 1373 1369 1363 1357 1352 1343 1329 1315 1316 1314 1308 1305 1302 1300 1299 1300 1304 1307 1313 1320 1326 1331 1335 1340 1345 1350 1356
1403 1404 1406 1408 1409 1409 1407 1403 1403 1402 1399 1397 1396 1396 1395 1394 1392 1393 1392 1393 1392 1391 1387 1379 1375 1372 1371 1367 1363 1358 1352 1346 1340 1333 1323 1316 1314 1311 1311 1310 1305 1310 1312 1316 1320 1327 1332 1337 1342 1346 1350 1354 1360 1365
1402 1404 1407 1407 1408 1406 1403 1399 1398 1396 1396 1392 1391 1390 1389 1387 1384 1383 1385 1386 1382 1376 1374 1373 1369 1367 1363 1359 1355 1350 1345 1340 1333 1330 1323 1320 1316 1315 1317 1317 1315 1318 1322 1327 1330 1334 1340 1344 1348 1353 1357 1363 1368 1373
1402 1404 1405 1405 1405 1402 1397 1395 1395 1390 1389 1386 1385 1382 1378 1377 1376 1379 1378 1373 1368 1368 1368 1366 1362 1360 1356 1351 1348 1342 1336 1332 1330 1326 1324 1322 1322 1321 1321 1322 1325 1326 1329 1336 1339 1341 1345 1351 1356 1360 1365 1369 1373 1376
1402 1403 1400 1398 1396 1391 1391 1390 1388 1383 1379 1379 1377 1376 1372 1371 1371 1373 1367 1361 1362 1362 1360 1359 1357 1353 1349 1346 1341 1335 1333 1330 1329 1328 1327 1327 1327 1327 1328 1330 1332 1336 1337 1341 1345 1349 1354 1358 1363 1367 1371 1375 1379 1382
1401 1398 1395 1387 1386 1386 1384 1380 1378 1376 1374 1373 1372 1370 1366 1366 1366 1361 1355 1354 1353 1354 1354 1354 1352 1349 1345 1340 1335 1335 1332 1331 1332 1332 1332 1332 1332 1333 1334 1336 1340 1343 1347 1349 1353 1357 1361 1366 1370 1374 1377 1380 1383 1386
1390 1384 1383 1374 1373 1374 1371 1370 1370 1369 1368 1369 1366 1363 1363 1362 1361 1354 1348 1348 1350 1350 1350 1347 1344 1341 1338 1337 1336 1334 1333 1333 1334 1334 1337 1339 1342 1339 1340 1343 1348 1353 1356 1359 1362 1364 1368 1373 1375 1378 1380 1382 1385 1387
1380 1373 1370 1369 1366 1366 1366 1365 1366 1367 1366 1365 1361 1360 1362 1361 1353 1347 1346 1346 1346 1344 1341 1339 1337 1335 1335 1336 1334 1333 1333 1334 1334 1336 1338 1341 1343 1346 1348 1351 1354 1358 1362 1366 1369 1371 1372 1375 1376 1379 1382 1383 1385 1387
1367 1364 1364 1364 1365 1366 1365 1363 1362 1361 1357 1356 1356 1355 1354 1350 1345 1347 1345 1343 1341 1337 1335 1333 1332 1333 1334 1333 1334 1334 1335 1338 1340 1342 1342 1345 1347 1351 1355 1357 1360 1364 1366 1369 1371 1373 1375 1377 1378 1379 1381 1383 1385 1387
1360 1358 1360 1361 1363 1361 1359 1358 1355 1352 1351 1351 1351 1348 1346 1347 1347 1346 1343 1340 1337 1334 1332 1330 1330 1330 1332 1333 1334 1336 1338 1340 1344 1344 1345 1350 1354 1358 1361 1362 1364 1367 1369 1371 1374 1376 1377 1378 1380 1380 1383 1385 1386 1388
1354 1355 1356 1357 1357 1354 1352 1351 1351 1351 1350 1350 1351 1350 1349 1347 1345 1343 1339 1336 1335 1333 1333 1332 1332 1332 1334 1336 1339 1341 1343 1346 1348 1349 1350 1354 1358 1362 1364 1366 1368 1370 1372 1374 1375 1376 1377 1379 1380 1383 1385 1386 1389 1390
1348 1350 1351 1351 1350 1348 1348 1348 1348 1349 1349 1349 1350 1350 1349 1347 1344 1342 1340 1338 1336 1334 1334 1334 1335 1337 1339 1341 1342 1345 1347 1350 1353 1355 1357 1359 1362 1365 1366 1368 1369 1372 1375 1376 1377 1378 1380 1382 1383 1385 1387 1388 1391 1393
1345 1346 1346 1346 1347 1347 1346 1347 1347 1348 1347 1347 1347 1347 1346 1346 1346 1346 1343 1341 1339 1338 1338 1337 1338 1342 1346 1348 1350 1352 1353 1355 1357 1359 1361 1363 1365 1368 1368 1371 1374 1376 1377 1377 1379 1381 1382 1384 1385 1386 1387 1389 1390 1392
1341 1342 1343 1344 1345 1345 1345 1346 1345 1344 1345 1344 1344 1345 1344 1344 1345 1345 1343 1342 1342 1342 1343 1344 1347 1349 1350 1351 1353 1354 1356 1358 1360 1362 1365 1368 1370 1371 1372 1374 1376 1376 1377 1378 1380 1381 1383 1385 1387 1388 1389 1389 1390 1392